User: anonymous   Login
Location: Newark
(41.7772°N, 74.7403°W)
Time: 18:49:22
(UTC+00:00)
Language:

Tiros 1 - Orbit

View from above orbital plane
View from above orbital plane
View from above satellite
View from above satellite

Ground track
Ground track

The orbit data is extracted from the following two-line orbital elements,

1    29U 60002B   20158.28398795 -.00000136  00000-0  10743-4 0  9996
2    29  48.3809   1.3302 0024086 185.6689 174.3954 14.74358401217018
Epoch (UTC): 06 June 2020 06:48:56
Eccentricity: 0.0024086
inclination: 48.3809°
perigee height: 630 km
apogee height: 664 km
right ascension of ascending node: 1.3302°
argument of perigee: 185.6689°
revolutions per day: 14.74358401
mean anomaly at epoch: 174.3954°
orbit number at epoch: 21701

The dashed part of the orbit path shows where the satellite is in the earth's shadow,  

DLR